Probability
3 13 32 32 42 52 58 58 55 58 55 61 52 58 55 55 58 55 65 65 61 61 68 74 71 71 74 65 71 74 68 71 68 74 74 71 71 74 74 71 68 52 71
3 13 32 55 55 58 52 58 58 52 58 61 52 61 58 58 61 61 65 65 58 61 61 65 71 71 68 74 74 71 65 61 68 71 68 61 68 74 68 58 65 58 77
6 16 26 52 58 55 58 61 58 52 55 61 55 55 65 55 52 61 65 61 55 55 61 61 68 65 65 65 71 68 71 77 68 61 65 39 48 65 65 61 71 77 71
10 19 29 55 58 52 58 55 61 58 61 61 65 65 65 58 55 55 52 58 55 55 55 61 61 58 52 65 52 61 68 65 55 48 29 19 16 45 65 65 65 65 65
13 19 45 58 61 58 61 55 58 65 65 58 65 68 68 58 55 61 48 52 58 61 58 52 55 48 52 52 55 58 65 52 45 29 19 26 48 58 52 58 61 48 61
13 23 35 61 71 74 61 58 55 58 58 65 71 71 65 65 65 61 58 48 52 52 52 48 45 45 45 48 45 52 55 45 32 13 23 26 42 55 58 52 55 48 68
13 19 32 58 68 77 68 65 71 71 58 71 61 65 61 58 55 58 55 58 55 48 45 42 45 42 45 35 42 52 48 45 23 16 29 32 55 71 55 61 58 58 55
6 13 29 68 74 74 74 65 71 77 71 65 65 61 61 68 68 61 48 52 48 52 45 42 42 45 32 29 39 55 55 48 13 3 16 26 55 74 65 65 65 55 58
10 13 32 32 55 68 68 74 71 74 71 68 65 65 65 65 52 48 52 45 42 35 32 32 39 42 32 35 45 55 42 32 13 16 10 29 55 81 68 65 58 52 52
19 19 32 29 48 55 65 81 74 71 77 68 65 65 65 58 55 55 48 42 39 39 32 29 35 32 39 42 52 58 35 32 16 23 23 29 81 84 71 61 65 58 55
23 23 19 26 42 45 45 61 71 71 74 68 65 55 55 55 48 42 35 35 35 32 35 35 32 26 29 26 39 42 32 29 16 13 29 35 77 71 74 71 61 61 55
26 19 29 19 26 29 32 58 68 58 68 74 71 61 65 68 61 35 39 35 32 35 48 42 32 19 16 23 39 35 26 19 23 23 35 58 65 71 74 74 65 74 65
29 26 26 19 29 39 48 58 55 52 68 58 61 52 71 48 45 32 42 48 61 45 35 42 26 23 16 26 32 32 23 19 19 10 19 68 68 68 68 74 71 77 77
29 26 29 29 42 58 48 52 52 55 52 45 65 55 42 48 48 39 58 48 58 55 52 32 39 23 26 26 26 29 35 23 13 6 61 65 77 77 71 71 68 71 74
32 29 35 48 71 77 81 68 52 58 45 45 52 55 45 48 29 29 52 42 32 35 45 45 32 26 26 23 19 26 26 19 10 10 45 65 68 81 77 74 65 71 68
39 39 48 58 74 81 84 84 71 52 74 42 45 42 39 48 48 45 42 58 32 35 32 42 32 42 45 42 29 19 19 13 26 35 35 58 68 71 74 74 74 68 58
45 55 61 65 74 74 74 61 61 55 45 55 45 55 61 58 65 55 45 52 39 45 55 52 39 32 52 39 35 26 26 23 23 29 32 52 55 65 74 71 81 77 68
55 74 84 48 61 87 84 77 55 55 55 58 61 61 61 58 58 81 55 45 55 48 55 61 45 45 42 48 45 42 35 39 32 39 39 45 58 45 68 71 74 77 77
68 84 81 74 74 84 87 84 81 84 77 68 68 65 61 55 55 55 68 71 55 61 61 55 52 48 58 58 35 42 45 39 45 39 32 42 55 58 58 77 74 74 71
74 87 87 87 90 90 87 90 81 81 74 71 71 77 68 68 58 58 65 68 58 71 68 74 71 74 74 74 23 26 42 42 52 55 45 39 58 58 52 52 61 61 68
77 87 90 87 90 94 87 77 81 81 74 71 65 71 74 71 68 77 65 74 65 68 68 58 68 65 55 68 45 45 52 45 45 48 52 45 39 42 52 52 65 68 68
87 87 90 90 90 90 94 90 90 81 71 71 68 87 71 81 77 68 68 74 74 90 77 77 77 61 45 52 48 42 42 48 65 26 52 58 45 52 45 45 58 74 74
74 87 81 90 90 90 90 84 81 84 77 77 81 81 81 90 81 77 81 74 77 71 71 84 81 71 61 55 48 52 42 35 23 26 39 45 58 58 42 39 52 68 65
74 81 87 90 90 90 90 81 81 84 84 81 84 87 84 90 84 84 84 84 77 81 90 71 55 65 77 68 68 71 55 48 39 16 26 29 39 61 48 32 35 61 58
71 77 87 90 90 90 90 90 90 87 90 84 87 84 87 90 84 84 84 87 90 84 87 87 81 84 71 65 65 58 52 58 42 42 32 39 42 42 42 48 48 48 65
74 81 84 90 94 94 90 87 94 90 90 90 90 90 90 87 87 84 84 87 84 84 81 84 77 74 74 74 77 55 48 48 45 48 39 45 58 42 42 48 48 42 48
Height
5861 5860 5860 5859 5858 5858 5859 5860 5861 5863 5864 5865 5866 5867 5868 5870 5871 5873 5874 5876 5877 5879 5881 5882 5884 5885 5887 5888 5890 5891 5892 5893 5893 5894 5895 5895 5895 5896 5896 5897 5898 5898 5899
5862 5861 5860 5860 5859 5859 5860 5861 5862 5864 5865 5866 5867 5868 5869 5871 5872 5873 5874 5876 5878 5880 5881 5883 5884 5886 5888 5889 5891 5892 5893 5894 5894 5895 5895 5896 5896 5897 5897 5898 5899 5900 5900
5862 5861 5861 5861 5860 5861 5861 5862 5863 5865 5866 5867 5868 5869 5870 5871 5872 5874 5875 5877 5879 5880 5882 5883 5885 5887 5889 5890 5891 5893 5894 5894 5895 5896 5896 5897 5897 5898 5898 5899 5900 5901 5901
5863 5862 5862 5862 5862 5862 5862 5862 5863 5865 5866 5868 5869 5870 5871 5872 5874 5875 5876 5878 5879 5881 5883 5884 5886 5888 5889 5890 5892 5893 5894 5895 5896 5896 5897 5897 5898 5899 5899 5900 5901 5901 5902
5864 5864 5863 5863 5863 5863 5863 5863 5863 5865 5867 5869 5870 5871 5873 5874 5875 5876 5877 5879 5881 5882 5884 5885 5887 5888 5889 5891 5892 5894 5895 5895 5896 5897 5897 5898 5899 5899 5900 5901 5902 5902 5902
5866 5865 5865 5865 5865 5864 5864 5864 5864 5866 5868 5870 5871 5872 5874 5875 5876 5877 5878 5880 5881 5883 5884 5886 5887 5889 5890 5891 5892 5894 5895 5895 5896 5897 5898 5899 5899 5900 5901 5902 5902 5903 5903
5868 5867 5867 5866 5866 5866 5866 5866 5867 5868 5869 5871 5872 5873 5875 5876 5877 5878 5879 5880 5882 5883 5885 5886 5888 5889 5890 5891 5893 5894 5895 5896 5897 5898 5899 5899 5900 5901 5902 5902 5903 5903 5904
5869 5869 5869 5868 5868 5867 5868 5868 5868 5870 5871 5872 5873 5875 5876 5877 5878 5879 5880 5881 5882 5884 5885 5887 5888 5889 5891 5892 5893 5894 5895 5896 5897 5898 5899 5899 5900 5901 5902 5903 5903 5904 5904
5871 5871 5870 5870 5870 5869 5870 5870 5871 5871 5872 5873 5875 5876 5877 5878 5879 5880 5881 5882 5883 5885 5886 5887 5889 5890 5891 5892 5893 5894 5895 5897 5898 5898 5899 5900 5900 5901 5902 5903 5903 5904 5904
5874 5873 5872 5872 5872 5872 5872 5872 5873 5873 5874 5875 5876 5877 5878 5879 5880 5881 5881 5882 5884 5885 5887 5888 5889 5890 5891 5893 5894 5894 5895 5897 5898 5898 5899 5900 5901 5902 5902 5903 5903 5904 5904
5876 5875 5874 5874 5873 5874 5874 5874 5874 5875 5875 5876 5877 5878 5879 5880 5880 5881 5882 5883 5884 5886 5887 5889 5890 5891 5892 5893 5894 5895 5896 5897 5898 5898 5899 5900 5901 5902 5902 5903 5903 5904 5904
5878 5877 5876 5876 5875 5875 5875 5875 5876 5876 5876 5877 5878 5879 5880 5880 5881 5882 5882 5884 5885 5886 5887 5889 5890 5891 5892 5893 5894 5895 5896 5897 5897 5898 5899 5900 5901 5902 5902 5902 5903 5903 5904
5881 5879 5878 5878 5877 5877 5877 5877 5877 5878 5878 5879 5879 5880 5881 5881 5882 5882 5884 5885 5886 5887 5888 5889 5890 5891 5892 5893 5894 5895 5896 5897 5897 5898 5899 5900 5901 5901 5902 5902 5903 5903 5903
5883 5882 5880 5880 5879 5879 5878 5878 5879 5879 5879 5880 5880 5881 5882 5882 5883 5884 5885 5886 5886 5888 5888 5889 5890 5891 5892 5893 5894 5895 5896 5897 5898 5898 5899 5900 5901 5901 5901 5902 5902 5902 5903
5885 5884 5882 5882 5881 5881 5880 5880 5880 5880 5881 5881 5882 5882 5882 5883 5884 5885 5886 5886 5887 5888 5889 5890 5891 5892 5892 5893 5894 5895 5896 5896 5897 5898 5899 5899 5900 5900 5901 5901 5901 5902 5902
5887 5886 5884 5884 5883 5882 5882 5882 5882 5882 5882 5882 5883 5883 5883 5884 5885 5886 5886 5887 5888 5889 5889 5890 5891 5892 5892 5893 5894 5895 5895 5896 5897 5897 5898 5899 5899 5899 5900 5900 5900 5901 5901
5889 5888 5887 5886 5885 5884 5884 5884 5883 5883 5883 5884 5884 5884 5884 5885 5885 5886 5887 5887 5888 5889 5890 5890 5891 5892 5892 5893 5894 5894 5895 5895 5896 5897 5897 5898 5898 5898 5899 5899 5899 5900 5899
5891 5889 5888 5887 5886 5885 5885 5885 5885 5885 5884 5884 5885 5885 5885 5885 5886 5886 5886 5887 5888 5888 5889 5890 5891 5891 5892 5893 5893 5893 5894 5894 5895 5895 5896 5896 5896 5897 5897 5898 5898 5898 5898
5893 5892 5890 5889 5888 5887 5886 5886 5886 5885 5885 5885 5885 5885 5885 5885 5886 5886 5887 5887 5887 5888 5888 5889 5890 5890 5891 5891 5892 5892 5892 5893 5893 5894 5894 5895 5895 5895 5895 5896 5896 5896 5896
5895 5893 5892 5891 5890 5888 5888 5887 5887 5886 5886 5886 5886 5886 5886 5886 5886 5886 5886 5887 5887 5887 5887 5888 5889 5889 5889 5890 5890 5891 5891 5891 5892 5892 5893 5893 5893 5893 5893 5893 5894 5894 5894
5897 5895 5893 5892 5891 5890 5889 5888 5887 5887 5886 5886 5886 5886 5886 5886 5886 5886 5886 5886 5886 5887 5887 5887 5887 5888 5888 5888 5889 5889 5890 5890 5890 5891 5891 5891 5891 5891 5891 5891 5891 5891 5891
5898 5896 5894 5893 5892 5891 5890 5889 5888 5887 5887 5887 5887 5886 5886 5886 5886 5886 5885 5885 5886 5886 5885 5885 5886 5886 5886 5887 5887 5887 5888 5888 5888 5889 5889 5889 5889 5889 5889 5889 5889 5889 5889
5898 5897 5895 5894 5893 5892 5891 5890 5889 5888 5888 5887 5887 5887 5886 5886 5886 5885 5885 5885 5885 5885 5884 5884 5884 5885 5885 5885 5885 5886 5886 5886 5886 5887 5887 5887 5887 5887 5887 5887 5887 5887 5886
5898 5897 5895 5894 5893 5892 5891 5890 5889 5889 5888 5888 5887 5886 5886 5885 5885 5885 5885 5884 5884 5884 5883 5883 5883 5883 5883 5883 5883 5883 5883 5883 5884 5884 5884 5884 5884 5884 5884 5884 5884 5883 5883
5897 5896 5895 5894 5893 5891 5890 5890 5889 5889 5888 5887 5887 5886 5886 5885 5884 5884 5884 5883 5883 5883 5882 5882 5882 5881 5881 5881 5881 5881 5881 5881 5881 5881 5881 5881 5881 5881 5881 5880 5880 5880 5880
5896 5895 5894 5893 5892 5891 5890 5889 5888 5888 5888 5887 5886 5885 5885 5884 5884 5883 5882 5882 5882 5881 5881 5880 5880 5880 5879 5879 5879 5878 5878 5878 5878 5878 5878 5878 5877 5877 5877 5877 5877 5876 5876
Wind_Speed
4 4 4 5 6 8 10 11 12 12 12 12 11 12 13 14 15 15 14 14 14 14 14 14 13 13 11 10 10 9 9 8 8 7 6 6 5 5 6 6 6 5 5
5 4 4 5 7 8 9 10 11 12 12 12 12 13 14 14 14 15 15 14 14 14 13 13 14 12 11 10 10 9 9 8 6 6 5 5 5 6 6 6 6 6 5
5 5 4 5 6 8 9 10 11 12 12 12 13 14 14 14 14 13 13 13 13 13 13 13 13 12 11 10 10 9 8 7 6 5 4 5 5 6 5 6 6 6 5
6 5 5 5 6 7 8 10 11 11 12 12 13 13 14 13 13 12 12 13 13 13 13 12 12 12 11 10 9 9 8 7 6 4 4 5 5 5 6 6 6 6 5
7 6 6 6 7 7 8 9 10 12 13 12 13 14 13 13 13 12 12 13 14 13 12 11 11 10 11 10 9 8 8 6 5 5 5 5 5 5 5 5 6 5 5
8 8 7 7 7 8 9 10 10 12 12 13 13 12 12 13 13 12 12 13 13 13 12 11 10 9 9 9 9 8 7 7 6 5 5 6 5 6 5 5 4 4 4
9 8 8 8 8 9 10 10 10 10 11 12 12 12 12 12 12 12 11 12 12 12 12 11 10 9 8 9 8 8 8 7 6 5 5 6 6 6 6 5 4 4 4
10 9 8 8 8 9 10 10 10 11 12 12 12 11 11 10 11 11 11 11 11 12 11 11 10 9 9 8 7 8 7 6 5 6 5 6 6 6 5 5 4 3 3
10 9 8 8 9 9 10 10 10 11 11 11 11 11 10 10 9 10 10 10 10 10 10 9 9 9 9 8 7 7 6 5 5 5 5 5 5 6 5 4 4 3 3
10 9 9 9 8 9 9 9 9 10 11 11 10 10 9 9 9 8 8 9 9 10 9 9 8 8 8 8 7 6 6 5 5 5 5 5 5 5 5 4 4 3 3
11 10 9 9 8 9 9 9 9 9 10 10 10 9 9 9 8 8 8 9 8 9 8 8 8 8 7 7 7 6 6 5 4 5 5 5 5 5 4 4 3 3 3
11 10 10 9 9 9 8 8 8 8 9 9 9 9 9 9 8 7 8 8 9 9 8 8 8 8 7 7 7 6 5 5 5 5 6 5 5 4 3 3 3 3 3
11 10 10 9 9 9 8 8 8 8 8 8 7 7 8 8 8 9 8 8 8 8 8 7 7 8 8 7 7 6 6 5 5 5 5 5 5 4 3 3 3 4 3
12 10 10 9 8 8 8 8 8 7 7 6 6 6 6 7 8 7 7 7 7 7 8 7 7 7 7 7 7 7 6 6 5 5 5 5 5 4 4 4 4 4 4
11 10 10 9 8 8 7 7 7 7 6 6 6 6 6 6 5 5 5 5 6 7 7 6 6 6 6 7 6 6 6 6 6 6 5 5 5 5 4 4 4 5 4
11 10 9 8 8 8 7 7 7 6 5 5 5 5 5 5 5 5 5 5 5 5 5 5 6 5 6 6 6 6 6 7 6 6 6 6 5 5 5 5 5 6 5
12 10 9 8 7 7 7 6 6 5 5 5 5 5 5 5 5 5 5 5 5 5 4 4 5 5 5 6 6 6 7 7 7 7 7 6 6 6 6 6 6 6 6
12 10 9 8 7 7 6 6 5 5 4 4 5 5 4 4 4 4 4 4 4 5 5 5 5 5 5 6 6 7 7 8 8 8 8 7 7 7 7 7 8 8 8
12 11 9 9 8 7 6 5 5 4 4 3 4 4 4 4 3 3 3 3 4 5 6 6 6 6 6 6 6 6 7 8 9 9 8 8 8 9 9 9 9 9 10
11 11 9 9 8 6 5 5 4 4 4 4 3 3 3 2 2 1 2 2 3 4 5 6 7 7 7 7 7 8 8 8 9 9 9 9 9 10 10 10 10 10 10
10 10 9 9 8 7 6 4 4 3 4 4 3 2 2 1 1 1 1 2 2 3 5 6 6 7 7 8 8 8 9 9 9 10 9 9 9 9 10 10 10 10 11
9 9 9 8 7 6 6 5 3 3 2 2 2 1 1 0 0 1 1 2 3 3 5 6 7 8 8 8 8 8 9 10 10 11 11 10 10 10 10 10 10 11 12
8 7 7 7 7 6 5 5 4 3 2 1 1 0 1 1 1 2 2 2 3 3 3 5 5 7 8 8 8 8 9 10 11 11 12 11 11 11 11 11 12 12 12
7 7 6 7 7 6 5 4 4 3 2 2 2 2 2 2 3 3 2 3 3 4 4 4 5 6 7 8 9 9 9 10 11 12 12 12 12 12 12 13 13 13 13
7 7 7 7 7 6 5 4 4 3 3 3 3 3 3 3 4 4 4 4 5 5 5 5 5 6 8 8 9 10 10 10 11 12 12 12 13 13 13 13 14 14 14
8 8 8 8 8 8 7 6 5 5 5 5 4 4 5 5 5 5 5 6 6 6 6 7 7 7 8 8 9 9 10 11 11 11 12 13 13 14 14 13 14 14 15
Wind_Direction
90 101 117 127 144 137 141 141 145 149 149 148 145 145 147 145 147 147 149 147 147 148 146 148 146 145 144 143 138 133 136 134 131 133 128 128 131 136 139 132 128 123 122
90 100 105 124 134 139 138 141 145 149 151 149 144 145 147 144 145 149 152 148 148 146 146 147 148 149 146 145 142 138 135 129 132 134 131 132 132 135 140 137 133 125 120
79 84 98 119 130 137 141 141 142 145 147 149 146 144 145 143 142 143 147 146 146 143 140 142 143 145 145 146 145 143 141 135 134 136 137 135 133 133 135 141 136 135 123
74 81 92 109 122 128 137 141 144 145 145 145 145 145 143 142 142 143 147 147 144 142 144 147 147 146 143 144 146 147 143 136 130 127 132 136 136 135 131 138 137 134 128
72 81 91 102 115 117 124 131 141 147 146 146 146 146 144 143 142 143 146 149 148 148 152 152 149 149 148 147 147 146 147 140 133 132 136 139 135 138 135 136 136 137 134
72 82 93 103 112 112 117 121 132 139 143 147 146 146 146 145 145 144 146 150 150 151 154 157 154 154 155 154 153 151 151 145 140 140 145 144 141 141 140 137 138 138 141
70 77 87 103 110 115 118 123 128 133 138 141 141 142 144 146 145 144 146 149 151 152 155 155 155 156 155 155 156 154 152 148 150 151 153 151 147 147 143 142 141 139 134
71 76 89 96 104 115 119 122 126 130 135 139 140 140 145 149 150 149 149 152 154 155 160 159 156 159 157 157 159 157 158 155 158 161 159 157 153 154 148 146 151 154 147
72 78 87 92 101 111 117 121 126 130 132 136 138 139 143 148 151 155 157 157 158 161 163 161 158 163 162 165 160 155 154 154 161 169 168 164 165 161 158 162 167 168 168
70 76 81 88 100 113 119 123 127 131 134 137 141 141 143 148 153 155 160 164 162 163 165 164 166 167 167 165 161 156 153 150 156 165 166 163 167 169 173 181 186 188 189
68 74 79 85 96 106 116 124 130 136 136 137 142 143 144 145 147 156 161 166 166 168 167 169 170 168 170 168 168 163 155 158 162 166 167 165 169 174 179 188 200 208 208
63 70 76 83 95 104 112 121 128 135 138 137 140 143 143 145 147 152 158 164 171 173 172 174 174 174 174 173 172 167 162 161 166 167 169 171 172 176 180 193 206 210 214
63 67 75 84 95 105 113 121 129 133 136 136 139 146 149 152 154 155 158 160 163 170 171 172 174 178 179 178 178 173 170 171 175 172 172 178 183 188 197 212 213 215 218
64 67 75 82 89 101 112 120 128 130 129 132 137 140 152 154 152 150 154 163 166 168 167 172 176 175 178 178 180 181 181 187 191 188 187 190 197 202 211 219 220 222 229
60 64 70 79 87 93 102 113 121 123 126 133 135 138 145 151 154 148 152 157 163 164 164 166 171 172 176 181 185 190 198 204 205 204 201 207 212 212 219 225 229 232 239
54 59 67 72 80 85 93 101 110 119 118 126 130 134 145 154 155 159 162 159 162 165 173 177 180 177 177 184 195 199 203 207 209 210 209 216 219 223 227 233 244 245 249
49 54 59 65 73 81 90 97 104 113 119 127 131 130 139 146 156 164 170 174 178 186 191 188 193 195 195 199 210 216 217 215 213 216 220 226 231 234 242 243 247 254 255
45 49 52 57 60 69 80 90 96 104 113 123 139 140 137 137 155 165 175 185 195 206 207 205 212 218 214 215 220 223 225 226 224 225 227 232 235 241 248 252 253 256 258
42 45 49 50 51 60 67 72 80 94 102 107 132 144 140 140 153 170 183 194 209 214 213 214 217 224 225 226 228 230 232 232 230 230 233 239 242 245 250 252 255 259 264
37 39 42 41 42 48 53 58 65 72 86 104 119 131 132 139 162 198 217 218 226 228 224 225 227 231 236 238 240 240 239 238 237 237 240 244 247 250 253 253 255 262 269
30 29 32 36 38 41 42 50 54 61 80 101 101 115 118 113 115 169 235 236 244 250 241 240 241 243 243 245 245 247 247 244 243 246 249 251 251 251 252 254 257 263 266
21 22 24 26 28 31 34 33 42 55 69 73 81 92 95 58 48 4 292 267 270 270 256 250 252 251 253 250 251 253 251 247 248 250 250 251 253 255 256 258 263 266 268
9 12 15 14 13 16 22 25 26 36 39 46 57 44 335 298 304 320 335 315 297 289 277 262 260 257 257 258 257 260 258 256 258 257 255 254 256 259 261 263 265 267 267
348 352 356 0 359 358 2 357 6 18 11 360 336 320 327 319 306 305 299 309 306 295 288 282 272 264 264 265 261 263 262 264 266 264 263 260 259 260 261 263 263 266 267
325 331 332 337 340 339 341 336 329 333 339 333 321 311 311 317 320 312 306 305 306 297 294 287 277 276 275 273 271 269 267 269 268 267 268 265 262 262 263 265 266 266 267
301 309 314 320 322 323 319 317 312 308 308 305 299 294 295 301 304 307 309 303 297 293 293 286 281 289 289 283 276 272 272 271 271 268 268 268 265 263 263 264 264 265 267